North Adams, MA

4:19 AM EST on November 24, 2017 (GMT -0500)
Harriman And West

Weather History for KAQW - September, 2013

Change the Weather History Date:

Thursday, September 5, 2013

  Actual Average Record
Temperature  
Mean Temperature 56 °F -  
Max Temperature 66 °F 73 °F 86 °F (2008)
Min Temperature 45 °F 51 °F 37 °F (2000)
Degree Days  
Heating Degree Days 9    
Growing Degree Days 6 (Base 50)    
Moisture  
Dew Point 48 °F    
Average Humidity 71    
Maximum Humidity 100    
Minimum Humidity 33    
Precipitation  
Precipitation 0.00 in - - ()
Sea Level Pressure  
Sea Level Pressure 30.01 in    
Wind  
Wind Speed 2 mph (West)    
Max Wind Speed 7 mph    
Max Gust Speed -    
Visibility 10 miles    
Events      
Averages and records for this station are not official NWS values.
T = Trace of Precipitation, MM = Missing Value Source: NWS Daily Summary

Daily Weather History Graph

Daily Weather History Graph

Search for Another Location

Airport or City:

Trip Planner

Search our weather history database for the weather conditions in past years. The results will help you decide how hot, cold, wet, or windy it might be!

Date:

Astronomy

Sep. 05, 2013 Rise Set
Actual Time 6:21 AM EDT 7:19 PM EDT
Civil Twilight 5:53 AM EDT 7:48 PM EDT
Nautical Twilight 5:18 AM EDT 8:22 PM EDT
Astronomical Twilight 4:42 AM EDT 8:58 PM EDT
Moon 6:32 AM EDT (9/5) 7:07 PM EDT (9/5)
Length of Visible Light 13h 55m
Length of Day
12h 57m
New Moon, 0% of the Moon is Illuminated
Sep 5
New Moon
Sep 12
First Quarter
Sep 19
Full
Sep 26
Last Quarter
Oct 4
New

Hourly Weather History & Observations

Time (EDT) Temp. Dew Point Humidity Pressure Visibility Wind Dir Wind Speed Gust Speed Precip Events Conditions
12:52 AM 55.0 °F 53.1 °F 93% 29.93 in 10.0 mi Calm Calm - N/A   Mostly Cloudy
1:52 AM 57.0 °F 54.0 °F 89% 29.93 in 10.0 mi Calm Calm - N/A   Overcast
2:52 AM 57.9 °F 55.9 °F 93% 29.92 in 10.0 mi Calm Calm - 0.00 in   Overcast
3:52 AM 57.0 °F 55.0 °F 93% 29.91 in 10.0 mi Calm Calm - 0.00 in   Overcast
4:52 AM 59.0 °F 55.9 °F 90% 29.91 in 10.0 mi Calm Calm - N/A   Overcast
5:04 AM 57.2 °F 57.2 °F 100% 29.91 in 10.0 mi Calm Calm - N/A   Overcast
5:31 AM 62.6 °F 57.2 °F 82% 29.91 in 10.0 mi West 4.6 mph - N/A   Overcast
5:52 AM 64.0 °F 57.0 °F 78% 29.91 in 10.0 mi West 3.5 mph - N/A   Overcast
6:52 AM 64.0 °F 55.9 °F 75% 29.93 in 10.0 mi WSW 6.9 mph - N/A   Overcast
7:47 AM 64.4 °F 55.4 °F 73% 29.95 in 10.0 mi Variable 4.6 mph - N/A   Mostly Cloudy
7:52 AM 64.0 °F 55.9 °F 75% 29.96 in 10.0 mi Variable 3.5 mph - N/A   Overcast
8:12 AM 62.6 °F 55.4 °F 77% 29.98 in 10.0 mi Variable 4.6 mph - N/A   Mostly Cloudy
8:52 AM 59.0 °F 50.0 °F 72% 30.00 in 10.0 mi West 5.8 mph - N/A   Partly Cloudy
9:52 AM 60.1 °F 48.9 °F 67% 30.01 in 10.0 mi Calm Calm - N/A   Clear
10:52 AM 60.1 °F 46.0 °F 60% 30.02 in 10.0 mi Variable 3.5 mph - N/A   Clear
11:52 AM 64.9 °F 42.1 °F 43% 30.03 in 10.0 mi Variable 4.6 mph - N/A   Clear
12:52 PM 64.9 °F 39.9 °F 40% 30.03 in 10.0 mi Variable 4.6 mph - N/A   Clear
1:52 PM 64.9 °F 39.0 °F 39% 30.04 in 10.0 mi Variable 3.5 mph - N/A   Clear
2:52 PM 66.0 °F 37.0 °F 34% 30.04 in 10.0 mi Variable 5.8 mph - N/A   Partly Cloudy
3:52 PM 66.0 °F 36.0 °F 33% 30.04 in 10.0 mi Variable 3.5 mph - N/A   Clear
4:52 PM 66.0 °F 36.0 °F 33% 30.05 in 10.0 mi Variable 4.6 mph - N/A   Partly Cloudy
5:52 PM 62.1 °F 37.0 °F 39% 30.06 in 10.0 mi Calm Calm - N/A   Mostly Cloudy
6:52 PM 60.1 °F 46.0 °F 60% 30.08 in 10.0 mi Calm Calm - N/A   Partly Cloudy
7:52 PM 52.0 °F 46.0 °F 80% 30.11 in 10.0 mi Calm Calm - N/A   Clear
8:52 PM 50.0 °F 46.0 °F 86% 30.13 in 10.0 mi Calm Calm - N/A   Scattered Clouds
9:52 PM 48.0 °F 45.0 °F 89% 30.17 in 10.0 mi Calm Calm - N/A   Clear
10:52 PM 46.0 °F 44.1 °F 93% 30.19 in 10.0 mi Calm Calm - N/A   Clear
11:52 PM 45.0 °F 43.0 °F 93% 30.20 in 10.0 mi Calm Calm - N/A   Clear